User: anonymous   Login
Location: Unspecified
(0.0000°N, 0.0000°E)
Time: 12:36:51
(UTC+01:00)
Language:

NATO 3D Rocket - Orbit

View from above orbital plane
View from above orbital plane
View from above satellite
View from above satellite

Ground track
Ground track

The orbit data is extracted from the following two-line orbital elements,

1 15392U 84115B   15030.87578905  .00000247  00000-0  85917-4 0  2324
2 15392 021.4935 318.7312 1034782 128.0683 290.4654 12.45473277375674
Epoch (UTC): 30 January 2015 21:01:08
Eccentricity: 0.1034782
inclination: 21.4935°
perigee height: 670 km
apogee height: 2297 km
right ascension of ascending node: 318.7312°
argument of perigee: 128.0683°
revolutions per day: 12.45473277
mean anomaly at epoch: 290.4654°
orbit number at epoch: 37567

The dashed part of the orbit path shows where the satellite is in the earth's shadow,  

DLR